Charter Quote
Worldwide +1-877-727-2538 Call
Select Language Lang
SAFETY RELIABILITY EXPERIENCE

Private Jet Charter Services - Xinzheng (ZHCC)

Paramount Business Jets offers private jet charter flights and luxury airliner charters to and from Xinzheng.

AIRPORT INFORMATION
ICAOZHCC
IATACGO
LOCATIONZhengzhou, China
FACILITY TYPEAIRPORT

At Paramount Business Jets you can hire chartered private jets to and from Xinzheng with as little as 4 hours of notice. All flights booked via Paramount Business Jets are operated by certified direct air carriers that meet and exceed the FAA part 135 and 121 protocol or a foreign equivalent safety authority. Furthermore, Paramount Business Jets subscribes to ARGUS for their third party safety checks of operators, aircraft, and crews prior each and every flight to and from Xinzheng and worldwide.

  • Quote a trip using Xinzheng or call us 24/7 - 365 days a year at +1-877-727-2538.
Questions? Call +1-877-727-2538

METAR Weather Data at Xinzheng, ZHCC, CGO

STATIONZHCC
OBSERVEDMon Oct 21, 20:00 UTC
NOWMon Oct 21, 20:43 UTC
AGE43 min ago
WINDN at 4 mph
VISIBILITY10 miles
CLOUDSmostly cloudy
TEMP63°F (17°C)
DEWPT45°F (7°C)
HUMIDITY52%
BAROMETER1017 hPa (30.03 in Hg)
METARZHCC 212000Z 36002MPS 6000 BKN046 17/07 Q1017 NOSIG

Call us on +1-877-727-2538 (24 Hours) to Hire a Private Jet or Get a Quick Quote.

Find Airports Near any Location

Processing
...